軌道要素
Epoch 2022 Jan. 21.0 TT = JDT 2459600.5
T 2021 June 22.95585 TT Rudenko
q 3.5959472 (2000.0) P Q
z -0.0010332 Peri. 251.15570 +0.09445321 +0.85667071
+/-0.0000007 Node 38.71700 -0.27665846 +0.51194156
e 1.0037155 Incl. 54.17548 -0.95631516 -0.06349127
From 1379 observations 2019 Feb. 8-2022 Jan. 27, mean residual 0".4.
|